Terminal Aerodrome Forecast
Issued by NWS Tulsa, OK

Home | Current Version | Previous Version | Text Only | Print | Product List | Glossary On
Versions: 1 2 3 4 5 6 7 8 9 10 11 12 13 14 15
000
FTUS44 KTSA 160500
TAFFSM
TAF
KFSM 160520Z 1606/1706 08005KT P6SM SCT250 WS020/18040KT
     FM161600 16012G20KT P6SM SCT250
     FM170100 14005KT P6SM SCT250=

USA.gov is the U.S. government's official web portal to all federal, state and local government web resources and services.